Weather History for VTCH - January, 2014

Change the Weather History Date:

Sunday, January 5, 2014

  Actual Average Record
Temperature  
Mean Temperature 68 °F -  
Max Temperature 82 °F 86 °F - ()
Min Temperature 54 °F 57 °F - ()
Cooling Degree Days 3    
Growing Degree Days 18 (Base 50)    
Moisture  
Dew Point 59 °F    
Average Humidity 67    
Maximum Humidity 94    
Minimum Humidity 42    
Precipitation  
Precipitation 0.00 in 0.01 in - ()
Sea Level Pressure  
Sea Level Pressure 29.89 in    
Wind  
Wind Speed 2 mph ()    
Max Wind Speed 26 mph    
Max Gust Speed -    
Visibility 4.7 miles    
Events      
T = Trace of Precipitation, MM = Missing Value Source: Averaged Metar Reports

Daily Weather History Graph

Daily Weather History Graph

Search for Another Location

Airport or City:

Trip Planner

Search our weather history database for the weather conditions in past years. The results will help you decide how hot, cold, wet, or windy it might be!

Date:

Astronomy

Jan. 05, 2014 Rise Set
Actual Time 7:02 AM ICT 6:03 PM ICT
Civil Twilight 6:39 AM ICT 6:27 PM ICT
Nautical Twilight 6:12 AM ICT 6:54 PM ICT
Astronomical Twilight 5:45 AM ICT 7:21 PM ICT
Moon 10:02 AM ICT (1/5) 10:15 PM ICT (1/5)
Length of Visible Light 11h 48m
Length of Day
11h 00m
Waxing Crescent, 19% of the Moon is Illuminated
Jan 5
Waxing Crescent
Jan 8
First Quarter
Jan 16
Full
Jan 24
Last Quarter
Jan 31
New

Hourly Weather History & Observations

Time (ICT) Temp. Heat Index Dew Point Humidity Pressure Visibility Wind Dir Wind Speed Gust Speed Precip Events Conditions
1:00 AM 63 °F - 60 °F 86% 29.93 in 5 mi Calm Calm - -   Mist
4:00 AM 60 °F - 58 °F 90% 29.92 in 4 mi Calm Calm - -   Mist
7:00 AM 59 °F - 58 °F 94% 29.93 in 1 mi Calm Calm - -   Mist
7:00 AM 59.0 °F - 55.4 °F 88% 29.92 in 1.2 mi Variable 2.3 mph - N/A   Partly Cloudy
8:00 AM 59.0 °F - 55.4 °F 88% 29.98 in 2.5 mi SE 2.3 mph - N/A   Partly Cloudy
9:00 AM 62.6 °F - 57.2 °F 82% 29.98 in 4.3 mi Variable 2.3 mph - N/A   Scattered Clouds
10:00 AM 67 °F - 59 °F 70% 29.98 in 5 mi Calm Calm - -   Mist
10:00 AM 66.2 °F - 57.2 °F 73% 29.98 in 5.0 mi Variable 2.3 mph - N/A   Partly Cloudy
11:00 AM 71.6 °F - 59.0 °F 64% 29.98 in 6.2 mi Variable 2.3 mph - N/A   Partly Cloudy
12:00 PM 73.4 °F - 57.2 °F 57% 29.95 in - Variable 3.5 mph - N/A   Clear
1:00 PM 73 °F - 62 °F 59% 29.88 in 6 mi Calm Calm - -  
1:00 PM 77.0 °F - 57.2 °F 50% 29.89 in - Variable 2.3 mph - N/A   Clear
2:00 PM 80.6 °F 80.8 °F 57.2 °F 45% 29.83 in - Variable 2.3 mph - N/A   Clear
3:00 PM 82.4 °F 82.5 °F 59.0 °F 45% 29.80 in - Variable 3.5 mph - N/A   Clear
4:00 PM 82 °F - 64 °F 44% 29.78 in 9 mi Calm Calm - -  
4:00 PM 84.2 °F 83.8 °F 59.0 °F 42% 29.80 in - Variable 2.3 mph - N/A   Clear
5:00 PM 82.4 °F 82.9 °F 60.8 °F 48% 29.80 in - Variable 26.5 mph - N/A   Clear
6:00 PM 75.2 °F - 60.8 °F 61% 29.80 in - ESE 5.8 mph - N/A   Unknown
7:00 PM 74 °F - 65 °F 65% 29.80 in 6 mi Calm Calm - -  
10:00 PM 67 °F - 63 °F 82% 29.89 in 6 mi Calm Calm - -